User: anonymous   Login
Location: Unspecified
(0.0000°N, 0.0000°E)
Time: 13:07:03
(UTC+00:00)
Language:

KORONAS-FOTON - Orbit

View from above orbital plane
View from above orbital plane
View from above satellite
View from above satellite

Ground track
Ground track

The orbit data is extracted from the following two-line orbital elements,

1 33504U 09003A   16204.50428467  .00000128  00000-0  51960-5 0  9993
2 33504  82.4416 200.4761 0020107 164.3369 195.8489 15.14382782411577
Epoch (UTC): 22 July 2016 12:06:10
Eccentricity: 0.0020107
inclination: 82.4416°
perigee height: 509 km
apogee height: 537 km
right ascension of ascending node: 200.4761°
argument of perigee: 164.3369°
revolutions per day: 15.14382782
mean anomaly at epoch: 195.8489°
orbit number at epoch: 41157

The dashed part of the orbit path shows where the satellite is in the earth's shadow,  

DLR